Waynesville, MO

12:08 AM CST on February 11, 2016 (GMT -0600)
Waynesville Regional At Forney Field

Weather History for KTBN - May, 2013

Change the Weather History Date:

Thursday, May 9, 2013

  Actual Average (KVIH) Record (KVIH)
Temperature  
Mean Temperature 68 °F 62 °F  
Max Temperature 76 °F 73 °F 91 °F (1899)
Min Temperature 60 °F 51 °F 36 °F (1966)
Degree Days  
Heating Degree Days 0 5  
Month to date heating degree days 49  
Since 1 July heating degree days 4767  
Cooling Degree Days 3 2  
Month to date cooling degree days 12  
Year to date cooling degree days 38  
Growing Degree Days 18 (Base 50)    
Moisture  
Dew Point 60 °F    
Average Humidity 83    
Maximum Humidity 100    
Minimum Humidity 54    
Precipitation  
Precipitation 0.28 in 0.16 in 1.29 in (1950)
Month to date precipitation 1.47  
Year to date precipitation 13.24  
Sea Level Pressure  
Sea Level Pressure 29.93 in    
Wind  
Wind Speed 7 mph (SSW)    
Max Wind Speed 14 mph    
Max Gust Speed 28 mph    
Visibility 9 miles    
Events Rain , Thunderstorm    
T = Trace of Precipitation, MM = Missing Value Source: NWS Daily Summary

Daily Weather History Graph

Daily Weather History Graph

Search for Another Location

Airport or City:

Trip Planner

Search our weather history database for the weather conditions in past years. The results will help you decide how hot, cold, wet, or windy it might be!

Date:

Astronomy

May. 09, 2013 Rise Set
Actual Time 6:04 AM CDT 8:06 PM CDT
Civil Twilight 5:35 AM CDT 8:35 PM CDT
Nautical Twilight 4:59 AM CDT 9:10 PM CDT
Astronomical Twilight 4:21 AM CDT 9:48 PM CDT
Moon 5:48 AM CDT (5/9) 8:02 PM CDT (5/9)
Length of Visible Light 15h 00m
Length of Day
14h 02m
Waning Crescent, 0% of the Moon is Illuminated
May 9
Waning Crescent
May 9
New
May 17
First Quarter
May 24
Full
May 31
Last Quarter

Hourly Weather History & Observations

Time (CDT) Temp. Dew Point Humidity Pressure Visibility Wind Dir Wind Speed Gust Speed Precip Events Conditions
12:58 AM 63.1 °F 57.7 °F 83% 29.97 in 10.0 mi SSE 8.1 mph - N/A   Scattered Clouds
1:43 AM 62.6 °F 57.2 °F 82% 29.96 in 10.0 mi SSE 6.9 mph - N/A   Light Drizzle
1:57 AM 64.4 °F 57.2 °F 77% 29.96 in 10.0 mi SSE 9.2 mph - N/A   Scattered Clouds
1:58 AM 64.4 °F 57.2 °F 77% 29.96 in 10.0 mi SSE 9.2 mph - 0.00 in   Scattered Clouds
2:01 AM 64.4 °F 57.2 °F 77% 29.95 in 10.0 mi South 6.9 mph - N/A   Light Drizzle
2:10 AM 64.4 °F 57.2 °F 77% 29.96 in 10.0 mi South 4.6 mph - N/A   Scattered Clouds
2:35 AM 68.0 °F 57.2 °F 68% 29.95 in 10.0 mi South 8.1 mph - N/A Rain Light Rain
2:55 AM 62.6 °F 60.8 °F 94% 29.95 in 10.0 mi South 5.8 mph - N/A   Overcast
2:58 AM 63.1 °F 60.1 °F 90% 29.94 in 10.0 mi South 4.6 mph - 0.02 in   Overcast
3:58 AM 64.4 °F 58.3 °F 80% 29.93 in 10.0 mi South 4.6 mph - N/A   Overcast
4:58 AM 65.1 °F 57.7 °F 77% 29.92 in 10.0 mi South 5.8 mph - N/A   Overcast
5:58 AM 64.6 °F 57.6 °F 78% 29.92 in 10.0 mi South 5.8 mph - N/A   Mostly Cloudy
6:56 AM 64.4 °F 59.0 °F 83% 29.93 in 10.0 mi South 6.9 mph - N/A   Light Drizzle
6:57 AM 64.4 °F 59.0 °F 83% 29.93 in 10.0 mi South 6.9 mph - N/A   Mostly Cloudy
6:58 AM 64.4 °F 59.0 °F 83% 29.92 in 10.0 mi South 6.9 mph - N/A   Mostly Cloudy
7:03 AM 64.4 °F 59.0 °F 83% 29.93 in 10.0 mi Variable 5.8 mph - N/A   Light Drizzle
7:05 AM 64.4 °F 59.0 °F 83% 29.93 in 10.0 mi South 6.9 mph - N/A Rain , Thunderstorm Light Thunderstorms and Rain
7:10 AM 64.4 °F 59.0 °F 83% 29.93 in 2.0 mi Variable 5.8 mph - N/A Rain , Thunderstorm Thunderstorms and Rain
7:20 AM 62.6 °F 60.8 °F 94% 29.94 in 9.0 mi South 5.8 mph - N/A Thunderstorm Thunderstorm
7:24 AM 62.6 °F 60.8 °F 94% 29.94 in 10.0 mi South 5.8 mph - N/A   Mostly Cloudy
7:50 AM 62.6 °F 60.8 °F 94% 29.94 in 10.0 mi South 3.5 mph - N/A   Light Drizzle
7:58 AM 63.0 °F 62.1 °F 97% 29.94 in 10.0 mi South 4.6 mph - 0.07 in   Light Drizzle
8:50 AM 62.6 °F 62.6 °F 100% 29.94 in 10.0 mi Variable 4.6 mph - N/A   Mostly Cloudy
8:58 AM 63.7 °F 63.3 °F 99% 29.93 in 10.0 mi Variable 2.3 mph - 0.01 in   Mostly Cloudy
9:06 AM 64.4 °F 62.6 °F 94% 29.93 in 10.0 mi SSE 4.6 mph - N/A   Light Drizzle
9:22 AM 62.6 °F 62.6 °F 100% 29.94 in 1.2 mi South 6.9 mph - N/A Rain Rain
9:31 AM 62.6 °F 62.6 °F 100% 29.95 in 2.0 mi South 10.4 mph 21.9 mph N/A Rain Rain
9:36 AM 62.6 °F 62.6 °F 100% 29.94 in 4.0 mi Variable 6.9 mph 21.9 mph N/A Rain Light Rain
9:58 AM 61.9 °F 61.9 °F 100% 29.92 in 8.0 mi Variable 4.6 mph - 0.15 in Rain Light Rain
10:22 AM 62.6 °F 62.6 °F 100% 29.91 in 10.0 mi SSE 9.2 mph - N/A   Mostly Cloudy
10:58 AM 63.9 °F 63.9 °F 100% 29.94 in 10.0 mi Variable 6.9 mph 16.1 mph 0.02 in   Mostly Cloudy
11:08 AM 64.4 °F 64.4 °F 100% 29.93 in 10.0 mi Variable 4.6 mph - N/A   Overcast
11:58 AM 66.2 °F 62.6 °F 88% 29.92 in 10.0 mi WSW 10.4 mph - N/A   Overcast
12:18 PM 68.0 °F 60.8 °F 78% 29.93 in 10.0 mi Variable 6.9 mph 20.7 mph N/A   Mostly Cloudy
12:23 PM 68.0 °F 60.8 °F 78% 29.93 in 10.0 mi Variable 5.8 mph - N/A   Mostly Cloudy
12:28 PM 68.0 °F 60.8 °F 78% 29.93 in 10.0 mi SW 13.8 mph 21.9 mph N/A   Mostly Cloudy
12:58 PM 70.3 °F 60.4 °F 71% 29.92 in 10.0 mi SW 9.2 mph 17.3 mph N/A   Clear
1:58 PM 73.9 °F 59.0 °F 59% 29.92 in 10.0 mi Variable 4.6 mph 18.4 mph N/A   Mostly Cloudy
2:58 PM 74.5 °F 60.1 °F 61% 29.91 in 10.0 mi Variable 3.5 mph - N/A   Partly Cloudy
3:58 PM 76.1 °F 59.0 °F 55% 29.91 in 10.0 mi Variable 4.6 mph - N/A   Mostly Cloudy
4:58 PM 75.6 °F 57.7 °F 54% 29.91 in 10.0 mi West 8.1 mph - N/A   Scattered Clouds
5:58 PM 74.7 °F 58.1 °F 56% 29.89 in 10.0 mi Variable 6.9 mph - N/A   Scattered Clouds
6:58 PM 72.9 °F 59.2 °F 62% 29.88 in 10.0 mi Variable 4.6 mph - N/A   Mostly Cloudy
7:58 PM 70.7 °F 59.9 °F 69% 29.90 in 10.0 mi WSW 2.3 mph - N/A   Overcast
8:58 PM 68.9 °F 60.8 °F 75% 29.90 in 10.0 mi SW 3.5 mph - N/A   Scattered Clouds
9:00 PM 68.0 °F 60.8 °F 78% 29.91 in 10.0 mi SW 3.5 mph - N/A   Light Drizzle
9:04 PM 68.0 °F 60.8 °F 78% 29.91 in 10.0 mi SW 2.3 mph - N/A   Scattered Clouds
9:05 PM 68.0 °F 60.8 °F 78% 29.91 in 10.0 mi SW 2.3 mph - N/A   Light Drizzle
9:15 PM 68.0 °F 60.8 °F 78% 29.92 in 10.0 mi SSW 2.3 mph - N/A   Partly Cloudy
9:58 PM 67.5 °F 61.3 °F 81% 29.92 in 10.0 mi SW 5.8 mph - 0.00 in   Mostly Cloudy
10:13 PM 66.2 °F 57.2 °F 73% 29.94 in 10.0 mi SSW 12.7 mph 27.6 mph N/A Rain Light Rain
10:38 PM 62.6 °F 59.0 °F 88% 29.97 in 10.0 mi WSW 11.5 mph - N/A Thunderstorm Overcast
10:58 PM 61.3 °F 58.3 °F 90% 29.97 in 10.0 mi Variable 5.8 mph - 0.00 in   Mostly Cloudy
11:02 PM 60.8 °F 59.0 °F 94% 29.97 in 10.0 mi Variable 5.8 mph - N/A Rain Light Rain
11:41 PM 60.8 °F 57.2 °F 88% 29.93 in 10.0 mi Variable 5.8 mph - N/A   Mostly Cloudy
11:44 PM 60.8 °F 57.2 °F 88% 29.93 in 10.0 mi WNW 10.4 mph - N/A   Light Drizzle
11:58 PM 60.1 °F 58.3 °F 94% 29.91 in 10.0 mi NW 5.8 mph - 0.01 in Rain Light Rain